Cleveland Municipal Airport, MS

9:19 AM CDT on April 30, 2017 (GMT -0500)
Cleveland Municipal

Weather History for KRNV - February, 2014

Change the Weather History Date:

Friday, February 7, 2014

  Actual Average (KGLH) Record (KGLH)
Temperature  
Mean Temperature 27 °F -  
Max Temperature 31 °F 48 °F 79 °F (2017)
Min Temperature 23 °F 31 °F 16 °F (1988)
Degree Days  
Heating Degree Days 38    
Moisture  
Dew Point 23 °F    
Average Humidity 86    
Maximum Humidity 97    
Minimum Humidity 79    
Precipitation  
Precipitation 0.01 in - - ()
Sea Level Pressure  
Sea Level Pressure 30.39 in    
Wind  
Wind Speed 9 mph (NNE)    
Max Wind Speed 13 mph    
Max Gust Speed -    
Visibility 9 miles    
Events Snow    
Averages and records for this station are not official NWS values.
T = Trace of Precipitation, MM = Missing Value Source: NWS Daily Summary

Daily Weather History Graph

Daily Weather History Graph

Search for Another Location

Airport or City:

Trip Planner

Search our weather history database for the weather conditions in past years. The results will help you decide how hot, cold, wet, or windy it might be!

Date:

Astronomy

Feb. 07, 2014 Rise Set
Actual Time 6:54 AM CST 5:39 PM CST
Civil Twilight 6:29 AM CST 6:05 PM CST
Nautical Twilight 5:59 AM CST 6:35 PM CST
Astronomical Twilight 5:30 AM CST 7:04 PM CST
Moon 11:54 AM CST (2/7) 1:08 AM CST (2/7)
Length of Visible Light 11h 36m
Length of Day
10h 45m
First Quarter, 59% of the Moon is Illuminated
Feb 7
First Quarter
Feb 14
Full
Feb 22
Last Quarter
Mar 1
New
Mar 8
First Quarter

Hourly Weather History & Observations

Time (CST) Temp. Windchill Dew Point Humidity Pressure Visibility Wind Dir Wind Speed Gust Speed Precip Events Conditions
12:15 AM 24.3 °F 13.9 °F 20.8 °F 87% 30.44 in 10.0 mi North 10.4 mph - N/A   Overcast
12:35 AM 23.9 °F 12.3 °F 20.8 °F 88% 30.42 in 10.0 mi North 12.7 mph - N/A   Overcast
12:55 AM 23.9 °F 12.9 °F 20.5 °F 87% 30.42 in 10.0 mi North 11.5 mph - N/A   Overcast
1:15 AM 23.9 °F 13.5 °F 20.7 °F 87% 30.43 in 10.0 mi NNE 10.4 mph - N/A   Overcast
1:35 AM 23.7 °F 14.0 °F 20.5 °F 87% 30.43 in 10.0 mi North 9.2 mph - N/A   Overcast
1:55 AM 23.5 °F 13.0 °F 20.3 °F 87% 30.43 in 10.0 mi NNE 10.4 mph - N/A   Overcast
2:15 AM 23.2 °F 16.0 °F 20.1 °F 88% 30.44 in 10.0 mi NNE 5.8 mph - N/A   Overcast
2:35 AM 23.4 °F 14.3 °F 20.1 °F 87% 30.44 in 10.0 mi North 8.1 mph - N/A   Overcast
2:55 AM 23.7 °F 13.3 °F 20.5 °F 87% 30.44 in 10.0 mi NNE 10.4 mph - N/A   Overcast
3:15 AM 23.5 °F 13.7 °F 20.3 °F 87% 30.44 in 10.0 mi North 9.2 mph - N/A   Overcast
3:35 AM 23.4 °F 11.6 °F 20.1 °F 87% 30.43 in 10.0 mi North 12.7 mph - N/A   Overcast
3:55 AM 23.4 °F 13.5 °F 20.3 °F 88% 30.43 in 10.0 mi NNE 9.2 mph - N/A   Overcast
4:15 AM 23.0 °F 11.7 °F 19.9 °F 88% 30.42 in 10.0 mi North 11.5 mph - N/A   Overcast
4:35 AM 23.4 °F 12.8 °F 20.1 °F 87% 30.42 in 10.0 mi NNE 10.4 mph - N/A   Overcast
4:55 AM 23.5 °F 13.7 °F 20.1 °F 87% 30.42 in 10.0 mi NNE 9.2 mph - N/A   Overcast
5:15 AM 23.5 °F 13.0 °F 20.3 °F 87% 30.42 in 10.0 mi NNE 10.4 mph - N/A   Overcast
5:35 AM 23.5 °F 13.0 °F 20.5 °F 88% 30.42 in 10.0 mi NNE 10.4 mph - N/A   Overcast
5:55 AM 23.7 °F 14.0 °F 20.7 °F 88% 30.44 in 10.0 mi NNE 9.2 mph - N/A   Overcast
6:15 AM 23.9 °F 14.2 °F 20.7 °F 87% 30.45 in 10.0 mi NNE 9.2 mph - N/A   Overcast
6:35 AM 23.7 °F 14.0 °F 20.3 °F 87% 30.44 in 10.0 mi NNE 9.2 mph - N/A   Overcast
6:55 AM 23.7 °F 14.0 °F 20.3 °F 87% 30.45 in 10.0 mi NNE 9.2 mph - N/A   Overcast
7:15 AM 23.9 °F 14.2 °F 20.3 °F 86% 30.45 in 10.0 mi NNE 9.2 mph - N/A   Overcast
7:35 AM 23.9 °F 15.0 °F 20.8 °F 88% 30.44 in 10.0 mi NNE 8.1 mph - N/A   Overcast
7:55 AM 24.3 °F 13.9 °F 21.2 °F 88% 30.44 in 10.0 mi NE 10.4 mph - N/A   Overcast
8:15 AM 24.3 °F 13.9 °F 21.2 °F 88% 30.45 in 10.0 mi NNE 10.4 mph - N/A   Overcast
8:35 AM 24.8 °F 14.0 °F 21.7 °F 88% 30.45 in 10.0 mi NNE 11.5 mph - N/A   Overcast
8:55 AM 24.8 °F 14.0 °F 21.4 °F 87% 30.45 in 10.0 mi North 11.5 mph - N/A   Overcast
9:15 AM 25.0 °F 14.2 °F 21.6 °F 87% 30.46 in 10.0 mi NNE 11.5 mph - N/A   Overcast
9:35 AM 25.3 °F 14.7 °F 21.6 °F 86% 30.46 in 10.0 mi NNE 11.5 mph - N/A   Overcast
9:55 AM 25.5 °F 16.2 °F 21.7 °F 86% 30.46 in 10.0 mi NNE 9.2 mph - N/A   Overcast
10:15 AM 25.9 °F 16.6 °F 21.9 °F 85% 30.45 in 10.0 mi NNE 9.2 mph - N/A   Overcast
10:35 AM 26.4 °F 18.9 °F 21.9 °F 83% 30.45 in 10.0 mi NE 6.9 mph - N/A   Overcast
10:55 AM 27.3 °F 19.1 °F 22.6 °F 83% 30.44 in 10.0 mi NE 8.1 mph - N/A   Overcast
11:15 AM 27.3 °F 19.1 °F 22.5 °F 82% 30.44 in 10.0 mi ENE 8.1 mph - N/A   Overcast
11:35 AM 28.0 °F 20.0 °F 22.8 °F 81% 30.43 in 10.0 mi NNE 8.1 mph - N/A   Overcast
11:55 AM 27.7 °F 20.4 °F 22.5 °F 81% 30.42 in 10.0 mi NE 6.9 mph - N/A   Overcast
12:15 PM 28.2 °F 23.1 °F 23.2 °F 81% 30.42 in 10.0 mi NNE 4.6 mph - N/A   Overcast
12:35 PM 28.4 °F 21.2 °F 23.2 °F 81% 30.39 in 10.0 mi NE 6.9 mph - N/A   Overcast
12:55 PM 28.6 °F 21.5 °F 23.4 °F 81% 30.38 in 10.0 mi NE 6.9 mph - N/A   Overcast
1:15 PM 29.3 °F 23.2 °F 23.9 °F 80% 30.37 in 10.0 mi ENE 5.8 mph - N/A   Overcast
1:35 PM 29.1 °F 23.0 °F 23.4 °F 79% 30.36 in 10.0 mi NE 5.8 mph - N/A   Overcast
1:55 PM 29.5 °F 22.5 °F 23.5 °F 79% 30.34 in 10.0 mi NE 6.9 mph - N/A   Overcast
2:15 PM 29.8 °F 23.0 °F 24.1 °F 79% 30.33 in 10.0 mi NE 6.9 mph - N/A   Overcast
2:35 PM 30.2 °F 21.3 °F 24.4 °F 79% 30.32 in 10.0 mi NNE 10.4 mph - N/A   Overcast
2:55 PM 29.8 °F 20.9 °F 24.1 °F 79% 30.32 in 10.0 mi NNE 10.4 mph - N/A   Overcast
3:15 PM 30.0 °F 20.5 °F 24.3 °F 79% 30.32 in 10.0 mi NNE 11.5 mph - N/A   Mostly Cloudy
3:35 PM 30.4 °F 22.2 °F 25.0 °F 80% 30.31 in 10.0 mi NNE 9.2 mph - N/A   Overcast
3:55 PM 30.2 °F 20.2 °F 25.0 °F 81% 30.30 in 10.0 mi NNE 12.7 mph - N/A   Overcast
4:15 PM 31.1 °F 23.1 °F 25.3 °F 79% 30.30 in 10.0 mi NNE 9.2 mph - N/A   Overcast
4:35 PM 30.4 °F 22.9 °F 24.8 °F 80% 30.31 in 10.0 mi NNE 8.1 mph - N/A   Overcast
4:55 PM 30.4 °F 23.6 °F 24.8 °F 80% 30.32 in 10.0 mi NNE 6.9 mph - N/A   Overcast
5:15 PM 30.2 °F 23.4 °F 25.2 °F 82% 30.32 in 10.0 mi North 6.9 mph - N/A   Overcast
5:35 PM 30.2 °F 22.6 °F 25.3 °F 82% 30.32 in 10.0 mi North 8.1 mph - N/A   Overcast
5:55 PM 30.0 °F 21.1 °F 25.2 °F 82% 30.34 in 10.0 mi North 10.4 mph - N/A   Overcast
6:15 PM 30.0 °F 23.2 °F 25.7 °F 84% 30.34 in 10.0 mi North 6.9 mph - N/A   Overcast
6:35 PM 29.8 °F 23.9 °F 25.7 °F 85% 30.34 in 10.0 mi North 5.8 mph - N/A   Overcast
6:55 PM 29.8 °F 22.2 °F 25.7 °F 85% 30.35 in 10.0 mi North 8.1 mph - N/A   Overcast
7:15 PM 29.7 °F 23.7 °F 25.3 °F 84% 30.35 in 10.0 mi North 5.8 mph - N/A   Overcast
7:35 PM 29.3 °F 20.2 °F 25.7 °F 86% 30.35 in 10.0 mi North 10.4 mph - N/A   Overcast
7:55 PM 29.7 °F 20.7 °F 25.7 °F 85% 30.34 in 10.0 mi North 10.4 mph - N/A   Overcast
8:15 PM 29.3 °F 20.2 °F 25.5 °F 86% 30.34 in 10.0 mi North 10.4 mph - N/A   Overcast
8:35 PM 29.3 °F 20.2 °F 26.4 °F 89% 30.35 in 7.0 mi North 10.4 mph - N/A Snow Light Snow
8:55 PM 28.9 °F 20.4 °F 26.4 °F 90% 30.35 in 7.0 mi North 9.2 mph - N/A   Overcast
9:15 PM 28.8 °F 20.2 °F 26.1 °F 90% 30.35 in 5.0 mi North 9.2 mph - N/A Snow Light Snow
9:35 PM 28.2 °F 19.5 °F 27.0 °F 95% 30.35 in 3.0 mi North 9.2 mph - N/A Snow Light Snow
9:55 PM 28.0 °F 20.0 °F 27.1 °F 96% 30.34 in 3.0 mi NNE 8.1 mph - N/A Snow Light Snow
10:15 PM 28.0 °F 20.8 °F 27.3 °F 97% 30.34 in 2.5 mi NNE 6.9 mph - N/A Snow Light Snow
10:35 PM 27.7 °F 20.4 °F 27.0 °F 97% 30.34 in 7.0 mi NNE 6.9 mph - N/A Snow Light Snow
10:55 PM 27.9 °F 21.5 °F 27.0 °F 96% 30.33 in 5.0 mi NNE 5.8 mph - N/A Snow Light Snow
11:15 PM 28.0 °F 20.8 °F 27.1 °F 96% 30.32 in 7.0 mi NE 6.9 mph - N/A   Overcast
11:35 PM 28.2 °F 21.0 °F 27.5 °F 97% 30.32 in 5.0 mi NE 6.9 mph - 0.01 in   Overcast
11:55 PM 28.8 °F 20.9 °F 27.9 °F 96% 30.31 in 5.0 mi ENE 8.1 mph - 0.01 in   Overcast